RH
43 33 26 30 41 56 74 85 91 93 94 95 95 95 94 94 94 95 95 95 96 96 96 96 94 93 92 92 93 94 94 93 92 90 88 87 86 86 88 90 92 94 94 94 94 94 94 93 93 92 92 92 90 90 88 86 86 87 91 93 92 90 87 77 63 51 43 48 57 70 82 86 82 76 68 65 65 68 71 74 73 71 67 61 56 52
40 33 26 25 30 40 55 71 80 86 90 92 94 94 93 92 92 92 93 93 94 94 95 95 95 94 94 93 94 94 95 96 95 93 90 87 85 84 85 88 90 92 92 92 92 90 90 88 87 86 86 85 84 83 80 78 76 76 80 87 90 91 89 80 67 53 44 48 58 72 86 89 86 80 73 68 67 68 70 70 68 65 60 54 48 44
36 33 30 26 28 32 40 54 62 70 80 86 89 90 92 90 90 90 90 90 92 92 92 92 92 93 93 92 92 93 94 94 95 94 93 90 88 86 86 88 89 90 90 89 88 87 85 82 80 78 78 76 75 73 72 69 67 66 69 77 84 88 88 81 69 56 46 47 56 68 82 86 86 82 76 72 70 68 67 64 60 55 49 43 38 34
38 36 34 32 32 34 39 46 51 56 63 72 78 83 86 88 89 88 88 89 90 91 90 90 90 90 90 89 89 89 90 90 90 91 92 90 90 89 88 87 85 83 82 81 80 79 78 76 73 71 69 66 64 62 62 62 61 61 62 68 74 79 81 75 65 54 45 45 52 61 72 78 80 78 76 73 69 65 60 55 49 42 36 32 28 26
43 42 40 40 38 38 40 47 51 54 58 63 69 74 79 86 88 88 88 88 89 90 90 89 87 86 84 82 81 80 79 78 78 79 80 82 83 84 84 80 76 73 71 70 70 69 68 67 65 62 58 54 51 51 52 53 54 55 56 59 62 65 65 60 54 46 40 41 45 52 60 66 69 70 68 65 61 56 50 42 36 30 25 22 20 18
53 51 49 48 44 43 46 52 56 58 64 69 72 76 81 86 90 90 90 90 90 90 89 87 84 79 75 72 70 68 66 64 63 62 63 65 68 70 72 69 66 62 61 61 60 60 58 56 53 49 44 40 38 38 38 40 42 44 45 47 48 48 47 43 39 35 33 34 37 42 47 51 54 54 53 50 46 40 35 30 25 21 17 15 14 14
64 60 58 55 51 50 56 64 66 68 77 83 84 84 85 87 90 91 90 90 90 89 87 84 78 72 66 63 61 59 57 56 54 53 52 51 50 51 53 53 52 50 50 50 49 47 44 41 38 34 31 28 27 26 26 27 28 30 31 32 32 32 31 29 27 26 26 26 29 31 34 36 37 37 35 32 30 26 23 20 17 14 12 12 11 11
74 68 62 59 57 58 64 73 78 82 89 93 92 90 85 85 86 88 89 90 89 88 85 80 73 65 58 56 54 52 50 49 47 45 44 40 38 35 33 34 34 35 36 36 34 32 30 27 24 22 21 20 20 19 19 18 19 20 20 21 21 21 21 20 20 20 20 21 22 23 24 24 24 24 22 21 19 17 15 14 12 11 10 10 10 10
82 76 67 62 63 67 71 76 84 91 93 94 94 92 87 85 83 84 87 87 86 85 82 76 66 58 51 48 45 43 41 39 37 35 33 30 27 24 21 21 21 22 22 22 22 20 19 18 16 16 16 16 15 15 15 15 15 15 15 16 16 16 16 16 16 16 17 18 18 18 18 18 18 17 16 15 14 13 12 11 11 10 10 10 10 10
85 82 78 71 68 69 73 76 84 90 93 94 94 94 92 88 86 85 86 83 82 81 78 69 60 52 45 40 37 34 31 29 27 26 24 21 19 17 16 15 15 15 15 14 14 14 14 14 14 14 15 15 14 14 14 14 14 14 14 14 14 15 15 15 15 16 16 16 16 16 16 15 14 14 13 13 12 12 12 11 11 11 11 10 10 10
86 86 86 80 73 67 68 73 81 89 92 93 93 93 94 91 89 88 85 83 80 77 72 63 55 48 41 35 31 28 26 23 22 20 19 18 17 16 16 15 14 14 14 14 14 14 15 16 16 16 17 16 16 16 16 16 16 16 16 16 16 16 16 16 16 16 16 16 16 15 15 14 14 14 13 13 12 12 12 12 12 11 11 10 10 10
84 87 87 85 81 76 74 74 78 84 90 91 91 90 90 90 90 90 86 83 79 73 65 58 51 44 37 32 28 26 24 22 20 19 18 18 18 18 18 18 18 18 18 18 19 20 20 21 21 21 21 20 20 19 19 19 18 18 18 18 18 18 18 18 18 17 17 16 16 16 15 15 14 14 14 14 13 13 13 12 12 12 11 10 10 10
79 84 87 87 87 86 86 84 82 82 85 88 89 89 87 89 89 88 85 83 78 70 62 56 49 42 36 33 30 28 26 24 24 23 22 22 22 23 23 23 24 24 24 24 25 26 26 26 26 26 26 24 24 23 23 22 22 22 22 22 22 21 21 20 20 19 18 18 17 16 16 16 16 15 15 14 14 13 13 12 12 11 11 10 10 9
76 78 84 86 88 89 89 89 88 86 82 83 83 83 82 81 81 82 82 81 77 71 63 58 51 45 39 36 35 34 33 32 32 32 30 30 30 31 30 30 30 30 31 31 31 32 33 32 32 31 30 29 28 27 27 26 26 26 26 25 24 24 24 22 22 20 20 19 18 18 18 17 17 16 16 15 14 14 13 12 12 11 10 10 10 8
80 78 80 82 85 87 88 89 89 89 88 82 76 73 71 71 70 69 68 74 75 72 66 61 56 51 46 41 40 42 42 42 43 42 41 40 40 40 40 38 38 38 38 37 37 38 39 38 38 37 36 34 33 32 31 30 29 29 28 28 27 26 26 24 23 22 21 21 20 20 19 19 18 18 17 16 15 14 13 12 12 11 10 10 10 8
89 85 81 80 80 80 82 86 88 89 90 88 84 79 74 72 69 66 62 68 70 69 64 62 61 59 54 49 48 48 50 51 52 51 50 50 49 48 46 45 44 44 44 44 44 45 46 45 44 44 43 40 38 36 34 33 32 31 30 30 29 28 27 26 24 24 23 22 22 21 21 20 20 19 18 17 16 14 14 13 12 11 11 10 10 9
92 91 90 87 83 79 74 79 83 86 88 90 89 88 89 86 83 78 71 69 69 68 62 62 63 64 62 59 56 54 55 57 58 58 57 57 57 56 53 52 51 52 52 53 54 54 54 53 53 52 50 47 44 42 39 36 34 33 31 30 29 28 27 26 26 24 24 23 23 22 22 21 20 19 18 17 16 15 14 13 12 12 11 11 10 10
92 92 92 92 90 87 81 77 78 81 85 87 88 89 90 90 90 90 87 82 78 74 68 68 67 67 68 69 67 64 62 64 64 65 64 64 64 64 62 60 58 60 60 62 64 64 63 62 62 61 58 55 51 48 44 41 38 36 33 31 29 28 27 26 26 26 24 24 24 23 22 21 20 19 18 17 16 15 14 13 13 12 12 12 12 11
90 91 92 92 92 92 90 86 82 79 81 83 84 87 90 90 90 90 90 90 89 86 82 78 76 76 82 87 85 80 74 73 73 73 71 71 72 72 72 68 68 68 69 71 73 74 73 72 70 69 66 62 58 54 51 47 43 40 36 33 31 30 29 28 28 28 27 26 25 24 23 22 21 20 19 18 17 16 15 14 14 14 13 13 13 13
86 88 90 90 90 91 92 92 90 87 82 80 80 83 87 88 89 89 90 89 90 90 90 87 84 84 89 90 92 90 87 84 82 81 77 76 77 79 79 77 77 78 79 78 80 80 79 77 76 74 71 67 63 60 58 54 49 45 41 39 37 36 36 35 34 33 32 30 29 27 26 25 24 23 22 21 20 19 18 17 16 16 16 16 16 16
80 82 84 86 88 89 90 90 90 90 90 86 82 80 80 83 84 86 88 89 89 90 90 88 86 85 88 90 92 92 91 91 90 88 85 82 82 84 85 85 85 86 86 86 86 85 83 81 80 77 73 70 67 65 63 60 55 51 48 46 45 45 44 44 43 42 40 38 36 34 31 29 28 28 28 27 26 24 23 21 20 19 19 19 19 19
79 77 77 79 81 83 85 87 88 89 90 90 89 86 82 81 81 82 83 85 87 88 89 87 84 82 83 87 89 90 90 90 92 92 91 90 89 89 90 90 90 90 90 90 89 88 85 84 82 79 76 73 71 70 69 65 61 57 54 52 52 51 51 52 52 52 50 48 44 40 36 34 34 34 34 34 33 32 29 27 26 24 24 24 24 24
85 82 78 77 76 77 78 81 83 85 87 89 90 90 89 86 84 81 78 78 79 80 83 83 80 77 77 82 86 89 90 89 90 91 92 92 92 93 92 92 90 90 91 90 90 88 85 84 82 80 77 75 74 74 74 70 66 62 59 57 55 54 54 55 56 58 58 57 53 48 42 39 38 38 40 40 40 40 38 36 34 32 32 32 31 30
90 88 86 82 79 77 76 76 77 80 83 85 87 88 89 88 88 86 84 80 78 76 75 75 74 74 74 78 83 87 88 87 87 88 89 90 91 91 92 92 92 90 90 90 88 86 84 83 82 80 77 77 78 79 78 75 71 66 62 59 56 54 54 56 58 61 64 63 60 54 48 42 40 40 43 46 47 47 46 44 42 42 42 40 40 38
92 91 90 88 86 82 80 78 78 78 80 82 85 86 87 87 87 87 88 86 84 82 79 78 76 76 75 78 81 84 86 85 84 84 84 86 87 88 89 90 92 92 90 88 86 83 82 81 80 78 77 78 81 83 82 78 74 70 65 61 58 56 54 57 60 64 66 66 63 58 52 46 42 43 46 50 53 54 53 52 50 50 49 48 47 45
90 91 92 91 90 88 85 83 82 82 83 84 85 86 86 86 85 84 85 85 84 84 84 83 81 79 77 78 80 82 83 83 83 81 78 76 81 87 88 89 90 91 91 90 86 82 80 78 77 77 77 79 83 85 84 81 76 72 68 64 60 58 56 58 62 65 67 67 65 60 54 48 44 44 48 53 57 58 58 57 55 54 53 52 50 49
90 91 92 92 92 90 90 88 88 88 88 89 89 89 88 86 84 83 82 81 81 81 82 82 81 80 79 79 79 80 81 82 82 80 76 71 74 82 88 89 89 89 89 90 89 87 84 82 81 80 80 82 85 87 86 83 79 74 71 67 63 60 59 60 62 64 66 66 64 60 55 49 46 46 50 56 60 62 62 60 58 56 55 53 52 50
92 92 92 92 92 92 92 92 91 91 91 91 91 90 90 88 86 84 81 78 76 76 74 74 75 76 76 76 76 77 78 79 79 79 76 72 72 76 85 90 90 89 89 89 90 90 91 90 90 89 88 88 89 90 88 85 81 77 74 70 67 64 63 62 63 63 64 64 63 60 56 51 48 48 52 58 62 64 64 62 60 58 56 54 52 50
92 92 92 92 92 92 92 92 92 92 92 92 92 92 92 90 89 86 82 78 74 71 69 69 70 71 73 74 76 77 78 77 77 76 76 73 71 73 80 86 89 90 90 89 90 90 90 91 91 92 92 92 92 92 90 88 84 81 78 74 72 69 67 65 64 62 62 62 62 62 60 55 52 51 54 60 63 66 65 64 61 59 56 54 53 52
92 92 92 92 92 92 92 92 92 92 92 92 92 92 92 92 91 90 86 82 76 71 68 67 67 68 71 76 81 83 83 79 76 76 75 72 70 70 74 80 85 87 89 89 90 90 90 90 90 89 90 90 90 91 92 90 88 86 83 80 77 74 71 68 65 62 61 62 64 66 66 62 59 57 58 61 64 66 66 64 62 60 57 55 54 53
91 91 91 91 92 92 92 92 92 92 92 92 92 92 92 92 92 92 90 87 82 77 72 69 66 65 66 74 81 84 83 80 77 74 71 69 67 67 70 74 78 81 83 84 86 87 88 87 86 84 84 83 84 86 88 90 90 90 88 86 83 79 74 69 65 63 62 66 70 74 75 72 68 65 64 65 66 67 66 65 62 60 57 56 55 54
90 91 91 91 91 91 91 91 92 92 92 92 92 92 92 92 92 92 92 90 89 86 82 77 73 68 65 68 71 74 73 73 71 68 64 64 63 62 63 66 70 72 74 77 79 81 84 83 80 78 76 76 76 79 84 89 90 90 90 89 86 82 77 71 67 66 68 74 79 82 81 80 76 74 71 70 69 68 67 65 62 60 57 56 55 55
90 90 90 90 90 90 90 90 90 91 91 92 92 92 92 92 92 92 92 92 92 90 90 87 84 79 74 70 67 65 64 64 64 62 60 60 60 58 57 58 61 65 71 76 78 80 80 78 74 72 70 70 73 78 86 89 90 90 90 89 87 83 79 74 71 72 76 82 85 85 83 82 80 78 76 74 71 70 68 65 62 60 57 56 56 56
90 90 90 90 90 90 90 90 90 90 90 90 91 91 91 91 91 91 92 92 92 92 92 90 90 88 85 81 76 72 69 66 64 63 60 59 58 56 54 53 56 62 76 82 84 82 80 75 71 68 65 68 74 81 90 90 90 90 90 89 87 84 81 77 76 77 81 86 86 85 83 82 81 80 77 74 72 70 67 64 61 58 57 57 57 58
90 90 90 90 90 90 90 90 90 90 90 90 90 90 90 91 91 91 91 92 92 92 91 91 90 90 90 88 86 82 78 74 71 68 65 62 60 57 53 50 53 61 76 83 84 82 77 72 68 65 63 67 74 82 90 90 90 90 90 89 87 85 83 80 79 80 83 85 84 84 83 82 80 78 74 72 70 68 65 62 60 58 58 58 58 58
89 90 90 90 90 90 90 90 90 90 90 90 90 90 90 90 91 91 91 91 91 91 91 90 90 90 90 90 90 88 86 83 80 76 73 70 67 63 60 56 56 60 69 73 73 71 68 66 65 64 62 64 70 78 86 89 90 90 89 88 87 86 84 82 80 80 82 83 83 82 82 80 77 74 71 68 67 65 64 62 60 60 59 59 59 60
89 89 89 89 90 90 90 90 90 90 90 90 90 90 90 90 90 91 91 91 91 91 90 90 90 90 90 90 90 90 89 88 88 86 84 82 79 76 74 71 70 70 71 72 70 68 66 68 67 66 63 61 63 69 78 82 86 88 88 86 86 84 83 80 80 80 82 82 82 81 80 78 74 71 68 66 65 64 63 62 62 61 61 61 60 60
89 89 89 89 89 89 90 90 90 90 90 90 90 90 90 90 90 90 90 90 90 90 90 90 90 90 90 89 89 89 89 89 89 90 90 90 89 88 87 86 86 85 84 84 82 80 78 79 78 74 69 62 60 61 66 72 78 82 84 84 83 82 81 78 77 77 79 81 81 80 79 76 73 69 66 65 64 64 64 63 63 62 62 62 62 62
89 89 89 89 89 89 89 89 89 90 90 90 90 90 90 90 90 90 90 90 90 90 90 90 90 90 90 90 90 89 89 89 89 90 90 90 90 91 90 90 90 90 90 90 90 89 89 88 86 82 77 69 63 60 60 62 67 72 74 76 77 77 76 74 73 73 74 77 79 79 77 74 72 68 66 64 64 63 63 63 63 63 63 63 63 63
88 89 89 89 88 88 89 89 89 89 89 90 90 90 89 89 90 90 90 90 90 90 90 90 90 90 90 90 90 90 89 89 89 89 89 90 90 90 91 91 91 91 91 91 90 90 90 90 88 86 82 76 71 66 62 61 61 62 65 68 70 70 68 68 68 68 70 73 75 76 74 72 69 66 64 63 62 62 62 63 63 62 62 64 64 65
87 88 88 88 88 88 88 88 89 89 89 89 89 89 89 89 89 89 89 89 90 90 90 90 90 90 89 89 89 89 88 88 87 86 86 86 88 89 90 90 91 91 91 91 90 90 90 90 90 88 86 83 79 74 70 66 63 62 62 65 65 64 63 63 64 65 68 70 71 71 70 68 66 64 62 61 61 61 62 62 62 62 62 62 64 65
85 86 86 87 87 88 88 88 88 88 89 89 89 89 89 89 89 88 88 88 88 89 89 89 89 89 89 88 88 87 87 86 85 84 83 82 83 84 86 88 90 90 90 90 90 90 90 90 89 88 88 86 84 82 79 75 71 69 68 68 66 65 64 64 65 66 68 69 69 68 67 65 63 62 60 60 60 60 60 61 61 62 62 62 62 62
83 84 84 85 86 86 86 87 88 88 88 88 88 88 88 88 88 88 88 88 88 88 87 88 88 88 88 88 88 87 86 85 84 84 84 83 83 83 84 85 86 88 89 90 90 90 90 89 88 88 86 85 84 84 82 81 79 77 76 74 72 71 70 69 68 68 68 68 68 66 65 63 62 61 60 60 60 60 60 60 60 61 62 62 61 60
79 80 82 82 83 84 84 85 86 86 87 87 88 88 88 88 88 88 88 87 87 86 86 86 86 87 87 87 87 87 87 87 87 87 88 88 88 88 87 87 86 86 87 89 90 90 90 90 89 88 87 86 84 83 82 81 80 79 78 77 76 74 72 70 69 68 68 67 67 66 64 63 62 60 60 60 60 60 60 60 61 61 61 61 60 58
74 76 77 78 79 80 80 81 82 83 84 85 86 86 86 87 87 87 87 87 86 86 86 85 86 86 86 86 86 86 86 86 86 87 88 89 89 89 90 89 88 88 88 88 89 89 89 90 90 89 88 87 86 85 83 82 80 78 77 76 75 74 72 70 68 68 68 67 66 65 64 63 61 60 60 60 60 60 61 62 62 62 62 60 58 54
68 70 72 74 74 75 76 77 78 79 80 81 82 83 84 84 85 85 85 85 85 85 84 84 85 85 86 85 84 84 84 84 84 84 84 86 86 88 88 89 89 89 89 89 88 88 89 89 89 89 89 89 88 87 86 84 82 80 78 76 76 74 73 71 69 68 68 68 67 66 64 63 62 62 62 61 62 62 63 63 64 63 62 60 56 49
62 64 65 67 68 70 71 72 73 74 74 75 76 78 80 81 81 82 82 82 82 82 82 82 83 84 84 83 83 83 83 82 82 82 81 82 82 84 85 86 87 88 88 88 88 88 88 88 87 87 88 88 88 87 86 85 84 82 81 80 78 78 77 76 74 73 73 72 70 69 66 66 65 65 64 64 65 66 66 65 64 63 61 58 51 43
59 59 60 60 62 63 65 66 67 68 68 70 71 73 74 76 76 76 77 77 78 78 78 78 79 80 80 80 79 79 80 80 79 79 78 78 79 80 81 82 84 85 86 87 87 87 87 86 86 86 85 86 85 85 84 84 84 84 83 82 81 81 80 78 78 77 77 77 76 74 72 71 70 70 68 68 68 68 68 67 65 62 59 53 44 36
58 57 56 56 56 57 58 59 60 61 63 64 65 66 68 69 70 70 70 71 72 71 71 72 72 74 74 74 74 74 74 74 74 74 74 75 76 76 77 79 81 82 84 85 86 86 85 85 84 84 83 83 82 82 81 81 81 82 82 82 82 82 82 80 80 80 80 80 78 77 76 76 74 74 72 71 70 69 67 65 63 59 54 45 36 27
57 56 54 53 52 52 52 52 53 55 56 58 59 60 61 61 62 63 64 64 64 63 63 63 63 64 64 65 65 65 66 66 66 67 68 70 71 73 75 77 79 81 82 83 84 84 84 84 83 82 81 80 80 79 79 78 77 78 78 79 80 81 81 81 80 80 80 80 79 78 77 77 76 74 73 71 69 67 64 62 58 53 44 34 26 20
57 55 53 51 50 48 47 47 47 48 49 51 52 54 55 56 56 56 57 57 56 56 55 54 54 53 53 54 54 55 56 56 57 58 60 63 66 69 72 74 77 78 80 80 81 81 81 81 81 80 79 78 77 77 76 74 73 72 72 72 73 74 76 76 77 77 78 78 77 76 76 74 73 71 69 67 65 63 61 57 50 42 32 23 18 15
Wind_Speed
38 38 39 42 45 48 50 49 47 46 45 44 43 42 41 38 36 34 34 33 33 33 34 35 36 36 37 37 38 39 40 42 43 44 44 44 45 44 44 42 40 39 39 40 41 42 42 43 43 41 38 34 31 29 27 26 25 24 25 25 25 25 26 26 27 28 30 31 32 33 34 35 36 35 35 34 33 33 32 32 32 32 33 33 34 34
37 37 37 39 42 45 48 49 49 48 47 46 45 44 43 41 39 38 37 36 35 35 34 34 35 36 37 39 40 41 42 43 44 44 45 46 46 46 46 44 42 40 39 39 39 39 39 38 38 37 36 35 34 33 31 30 28 28 28 29 28 27 27 28 29 30 31 32 33 34 34 35 35 35 35 34 34 33 33 33 33 33 34 34 34 35
35 35 36 37 39 41 44 46 48 50 49 48 47 46 44 43 41 40 39 38 38 37 36 35 35 35 37 39 41 42 42 42 43 43 44 44 45 45 45 43 40 38 36 36 35 35 34 33 32 31 30 30 30 30 30 29 29 29 31 32 31 31 30 30 31 32 33 34 34 34 34 34 34 34 34 34 34 34 34 34 34 34 34 35 35 35
34 34 35 36 37 38 40 42 44 46 48 49 48 48 46 44 42 41 41 40 39 38 38 37 35 35 35 36 38 39 40 40 40 39 40 40 41 41 41 39 36 33 32 32 32 33 32 31 30 29 28 27 27 27 28 28 29 31 32 34 34 34 33 33 34 34 35 35 35 35 35 34 34 34 34 34 34 34 35 34 34 34 35 35 35 35
33 33 34 34 35 37 39 39 40 42 44 45 46 46 45 43 41 41 40 39 38 37 37 37 36 35 34 35 35 36 36 36 36 35 35 35 35 36 36 34 32 31 31 31 32 32 32 32 31 30 28 27 26 26 27 28 30 31 33 34 35 36 36 36 36 35 35 35 35 35 35 35 34 34 34 34 34 35 34 34 34 34 34 34 34 34
32 32 33 33 35 36 38 38 38 39 40 40 41 42 42 40 39 38 37 36 36 36 36 37 37 36 35 34 33 33 33 32 32 31 31 31 32 33 33 32 31 31 31 31 32 32 32 32 31 30 29 28 27 27 27 28 29 30 32 33 34 35 35 35 35 35 34 34 34 34 34 35 35 35 34 34 34 34 34 34 33 34 34 34 34 34
31 31 32 33 35 36 37 37 37 37 37 36 37 38 39 39 38 37 35 35 34 35 36 37 37 37 35 34 33 32 31 31 31 30 30 29 30 31 31 31 30 30 31 31 32 32 32 31 31 30 29 28 27 27 27 27 28 29 30 31 32 32 33 33 33 32 32 32 32 32 33 33 33 33 33 33 33 33 33 33 33 33 33 33 34 34
29 31 32 33 35 36 36 36 36 36 36 35 36 37 39 39 39 38 37 35 35 35 36 37 37 36 35 34 33 32 32 31 31 31 31 30 30 30 30 30 30 30 30 31 31 31 31 30 30 29 29 28 27 27 27 28 28 29 29 30 30 31 31 31 31 31 30 30 31 31 31 31 32 32 32 32 32 32 32 32 32 33 33 33 34 34
29 30 32 34 35 36 36 37 36 35 35 36 36 37 38 39 39 38 38 37 36 36 36 36 36 35 35 34 33 32 32 32 32 32 32 31 31 31 31 30 30 30 30 30 30 30 30 30 29 29 28 28 28 28 28 29 29 29 30 30 30 30 30 30 30 30 29 29 29 29 30 30 30 30 30 31 31 31 31 32 32 32 33 33 34 34
29 30 31 33 35 36 37 37 37 36 35 35 35 35 35 36 37 37 38 38 37 36 36 35 35 35 34 33 32 32 31 32 32 32 32 31 31 31 31 30 30 30 30 30 29 29 29 28 28 27 27 27 27 28 28 29 29 29 29 30 30 29 29 29 29 29 29 29 29 29 29 29 29 29 30 30 30 30 31 31 32 32 33 33 33 34
30 30 30 32 34 35 37 38 38 36 35 34 33 32 33 33 34 35 36 37 37 36 34 35 35 35 34 33 32 32 31 31 31 31 31 31 31 31 30 30 29 29 29 28 28 27 27 26 26 26 26 26 26 27 28 28 28 29 29 29 29 29 29 29 29 29 28 28 28 28 28 28 29 29 29 29 30 30 31 31 32 32 32 33 33 33
31 31 30 31 32 33 36 38 39 38 37 35 33 33 34 33 32 33 34 35 35 34 34 34 35 34 33 32 32 31 31 30 30 30 30 30 30 30 29 29 28 28 27 27 26 25 25 24 24 24 25 25 26 26 27 27 27 28 28 28 28 28 28 28 28 28 28 28 28 28 28 28 28 28 29 29 30 30 31 31 31 32 32 32 33 33
31 32 32 31 31 31 33 35 38 39 39 38 36 35 35 34 33 32 33 33 33 33 33 33 33 33 33 32 31 30 30 30 29 29 29 28 28 28 27 27 27 26 25 25 24 24 23 23 23 24 24 25 25 26 26 26 27 27 27 27 28 28 28 28 29 29 28 28 28 28 28 28 28 28 29 29 30 30 31 31 31 32 32 32 32 33
32 33 34 34 33 32 32 33 35 37 39 40 40 39 38 37 35 34 34 33 33 33 32 32 31 32 32 31 30 29 29 28 28 27 27 27 27 26 26 25 25 24 24 23 23 23 22 22 23 23 24 24 25 25 25 26 26 27 27 27 28 28 28 29 29 29 29 29 28 28 28 28 28 28 29 29 30 30 31 31 32 32 32 32 32 33
32 33 35 36 36 35 34 33 33 34 35 37 38 39 38 37 37 36 35 34 33 32 32 31 31 31 30 30 30 29 28 27 27 26 26 26 26 25 25 24 24 23 23 22 22 22 22 22 23 23 24 24 25 25 25 26 26 27 27 28 28 28 29 29 29 29 29 29 28 28 28 28 29 29 29 30 30 31 31 32 32 32 33 33 33 33
33 33 34 36 37 38 37 36 34 33 33 33 33 34 35 35 36 36 35 34 33 32 32 32 31 30 30 30 29 29 28 27 27 26 25 25 25 25 24 24 24 23 22 22 22 22 22 23 23 24 24 24 25 25 26 26 27 27 28 28 28 28 29 29 29 29 29 29 29 29 29 29 29 29 30 30 31 32 32 32 33 33 33 34 34 34
34 34 35 35 36 37 38 39 39 38 36 34 32 31 32 33 33 33 33 33 32 32 32 32 32 30 30 30 29 29 29 28 27 26 25 24 25 25 24 24 24 23 22 22 22 23 23 24 24 25 25 25 26 26 26 26 27 27 28 28 28 28 28 28 28 29 29 29 29 29 29 29 29 30 30 31 31 32 33 33 34 34 34 34 34 35
34 35 36 36 36 37 37 39 40 41 40 39 37 34 32 31 31 31 31 31 31 32 32 32 31 30 28 28 29 29 30 28 27 26 25 25 25 25 25 25 24 24 23 23 23 24 24 25 25 26 26 26 26 26 26 27 27 27 27 27 27 27 27 27 28 28 28 28 29 29 29 29 29 30 30 31 32 32 33 34 34 34 35 35 35 35
33 34 35 36 37 37 36 37 38 40 41 42 41 39 36 34 32 30 30 30 30 31 31 31 30 29 28 28 29 30 30 29 28 27 26 25 26 26 25 25 25 25 24 24 24 25 25 26 26 26 26 26 26 26 27 27 27 27 27 26 26 26 26 26 26 27 27 28 28 28 28 28 29 29 30 31 31 32 33 34 34 34 35 35 35 36
34 34 34 35 36 37 37 37 37 38 38 39 41 41 41 38 35 33 31 30 29 30 30 31 31 30 30 31 31 32 31 30 30 29 28 26 26 26 26 27 27 26 25 26 26 26 26 27 27 27 27 26 26 27 27 27 27 26 26 25 25 24 24 25 25 26 26 26 26 27 27 27 28 28 29 30 31 32 32 33 34 34 34 35 35 35
36 36 35 35 34 36 37 38 38 38 37 37 38 39 41 42 40 38 35 32 31 30 31 32 33 33 32 34 35 36 35 33 32 31 29 27 26 27 28 28 28 27 26 27 27 28 28 28 29 28 27 27 27 27 27 27 27 26 26 25 24 24 24 24 25 25 25 25 25 26 26 26 27 28 28 29 30 31 32 32 33 33 34 34 34 35
36 37 38 38 37 37 37 38 38 39 38 38 37 38 40 41 42 42 41 39 37 35 35 36 36 36 35 36 36 37 37 36 34 33 31 29 29 30 31 30 29 28 28 29 29 29 30 30 30 29 28 28 27 27 28 28 27 27 26 25 24 24 24 24 24 25 25 25 25 25 26 26 27 27 28 29 29 30 31 31 32 32 33 33 34 34
34 36 37 39 40 40 40 39 39 40 40 40 39 39 39 40 41 42 43 43 43 42 41 41 40 39 38 38 38 37 36 36 35 33 32 33 34 35 35 33 31 30 31 32 32 32 32 32 32 31 30 29 28 28 28 28 28 27 26 26 25 25 25 25 25 25 25 25 26 26 26 27 27 28 28 28 29 29 30 30 30 31 31 32 33 33
33 34 36 38 40 41 42 42 42 42 42 41 41 40 40 40 40 41 42 43 44 44 44 43 42 41 41 41 41 40 38 37 35 34 34 35 36 38 38 36 35 34 34 34 34 34 34 34 34 33 31 30 30 29 29 29 29 28 27 27 26 26 25 25 25 25 25 26 27 28 28 28 28 28 29 29 29 29 29 29 29 30 30 31 31 32
33 33 34 36 37 39 40 42 42 43 43 42 42 41 41 40 40 41 41 42 42 43 43 44 44 44 44 44 43 42 41 40 39 38 37 37 37 38 39 39 38 37 37 36 35 35 36 36 36 35 34 33 32 31 31 30 30 29 28 27 27 26 26 25 24 24 25 27 28 29 29 29 29 29 29 29 29 29 28 28 28 28 29 29 30 31
32 33 34 34 35 36 37 38 40 41 41 41 41 41 40 40 40 40 41 41 41 42 42 43 44 45 45 45 45 45 44 43 42 42 40 40 39 39 39 40 40 40 39 37 36 35 36 37 38 37 36 35 34 33 33 32 31 29 28 27 27 26 26 25 25 25 26 28 29 31 31 31 30 30 30 30 29 29 28 28 27 27 28 28 29 30
31 33 33 33 33 33 34 35 36 37 38 39 39 40 39 39 39 39 40 39 39 39 40 41 42 43 44 45 45 46 46 45 44 44 43 42 42 41 40 39 39 39 39 38 37 36 36 37 39 39 38 38 37 36 35 34 32 30 29 28 27 26 26 25 26 26 28 29 31 32 32 32 31 31 31 31 30 30 29 28 28 27 28 28 29 29
30 32 34 33 33 32 32 32 33 34 35 36 37 38 38 38 38 38 38 38 37 36 37 38 39 40 41 42 43 44 45 45 44 44 44 44 44 45 43 40 37 36 36 37 36 36 35 36 38 38 39 39 38 38 37 36 34 32 30 28 27 26 26 26 27 28 29 30 31 32 33 33 33 32 32 32 31 31 30 30 29 28 28 28 29 29
30 32 34 34 33 32 32 32 31 32 33 34 35 36 37 38 38 38 38 37 36 36 36 36 36 36 37 38 39 41 42 43 43 44 43 44 46 47 46 43 40 37 35 34 34 34 34 35 35 35 36 37 38 38 39 38 36 34 32 30 29 28 28 29 29 30 31 32 32 33 34 34 34 33 33 33 33 33 32 32 31 30 30 29 29 29
30 31 34 35 35 34 32 32 31 31 32 33 34 36 37 38 38 38 38 38 37 37 37 37 36 36 37 37 37 38 39 41 42 43 43 44 46 48 48 47 45 43 40 37 35 35 35 35 35 34 34 34 36 37 39 39 39 37 35 33 31 31 31 31 32 32 33 33 33 34 34 35 35 35 35 35 35 35 35 34 33 33 32 31 31 30
29 31 33 36 37 37 35 33 32 31 32 33 34 35 36 37 38 39 39 39 39 39 39 39 39 39 40 40 40 40 41 42 42 42 43 44 46 48 48 48 48 48 46 43 41 40 40 39 39 38 37 36 36 36 37 39 41 40 38 36 34 33 33 33 34 34 33 33 33 34 35 36 37 37 36 36 37 37 37 36 36 35 34 33 32 32
27 30 32 35 37 38 38 36 35 34 33 33 33 34 35 36 37 38 39 40 40 41 41 41 41 42 42 43 44 44 45 44 44 44 44 45 46 47 47 47 48 48 48 46 45 45 44 43 43 42 41 40 38 37 37 39 42 42 40 38 36 35 35 34 34 33 32 32 32 34 36 38 38 38 38 38 38 39 39 38 37 36 35 34 34 34
25 28 30 33 36 38 39 39 37 36 35 34 33 33 34 35 36 37 38 39 40 40 41 41 41 42 43 43 44 45 45 45 45 45 45 45 46 46 45 46 46 46 45 44 45 45 45 44 44 43 42 41 39 37 37 39 41 42 41 38 36 35 34 34 33 32 30 30 32 35 37 39 39 39 39 39 39 39 39 39 38 37 36 36 36 35
24 26 28 30 33 35 37 38 38 36 35 34 33 33 33 33 34 35 36 37 38 39 39 40 40 40 41 42 43 44 44 44 44 45 45 45 44 44 44 44 44 43 41 41 42 43 44 43 43 42 41 40 39 37 37 38 39 39 38 36 34 33 32 32 31 30 30 31 33 36 38 39 39 39 39 39 39 39 39 38 38 37 37 37 37 37
24 25 26 28 30 32 34 35 36 36 35 34 33 32 32 32 33 34 35 35 36 37 37 38 38 39 40 40 41 42 42 42 43 43 43 43 43 42 42 43 43 42 41 41 42 42 42 42 42 41 41 40 39 38 37 37 36 36 34 33 31 31 31 31 31 31 31 33 35 37 38 38 38 39 39 39 38 38 38 38 38 38 39 39 39 39
24 25 25 26 28 30 31 33 34 34 34 34 33 32 32 32 32 33 34 35 35 36 36 36 37 38 38 40 40 41 41 41 41 41 40 40 40 40 40 41 41 42 42 43 43 43 43 42 41 41 41 41 41 41 40 39 38 36 34 33 31 31 31 31 32 32 33 35 36 37 38 37 37 37 38 38 38 38 38 38 39 40 40 40 40 40
26 26 26 26 27 28 29 31 32 33 34 34 34 33 33 32 32 32 33 34 35 35 36 36 37 37 38 39 40 40 40 40 39 39 38 37 37 37 38 39 40 41 42 43 43 43 43 42 42 42 42 43 43 44 44 43 42 40 38 36 35 34 34 34 35 35 36 37 38 38 38 37 37 38 38 38 39 39 39 40 40 41 41 41 41 41
29 28 28 27 27 28 28 29 31 32 33 34 34 34 34 34 33 33 33 33 34 35 35 36 36 36 37 37 38 38 38 39 38 38 37 36 36 36 37 38 38 39 40 41 41 41 41 41 42 42 43 44 45 46 47 47 47 46 44 42 40 39 39 39 39 39 39 40 41 41 40 39 39 39 40 41 41 41 41 41 42 42 42 42 42 42
31 31 30 30 29 29 29 29 30 31 32 33 34 34 35 35 35 34 34 34 34 34 34 35 35 35 35 35 35 35 35 36 36 36 36 36 36 36 36 37 37 38 38 38 39 39 40 40 41 42 43 44 46 47 48 49 49 49 49 47 46 44 44 43 43 43 43 44 44 44 43 42 42 42 42 43 42 42 42 42 42 42 42 42 42 42
33 33 33 33 32 31 31 31 31 31 32 32 33 33 34 35 35 35 35 35 35 35 35 35 35 35 34 34 34 34 34 34 34 35 35 36 37 37 37 37 37 37 37 37 37 37 38 39 40 42 43 44 46 47 48 49 50 50 50 49 48 48 48 47 47 47 47 47 47 46 45 44 44 43 43 43 43 42 42 42 43 43 43 43 43 42
33 33 34 34 34 34 33 33 33 32 32 32 32 33 33 33 34 34 35 35 35 35 35 36 36 36 36 36 35 35 35 35 35 36 37 39 40 41 41 41 40 40 39 39 38 38 38 39 40 41 42 44 45 46 47 48 49 49 49 49 49 50 49 49 49 49 49 48 48 47 45 44 43 42 42 42 42 42 43 43 43 43 43 43 43 43
30 32 33 34 34 34 34 34 34 34 34 34 33 33 33 33 33 33 34 34 34 35 35 35 36 36 36 37 37 37 37 37 38 38 39 41 42 43 44 44 44 43 43 42 42 42 41 41 41 41 42 43 44 45 46 47 48 48 48 49 49 50 50 50 50 50 49 48 47 45 43 42 41 41 41 41 42 42 42 43 43 43 44 44 43 43
26 28 30 31 32 33 34 34 35 35 35 35 35 35 35 34 34 34 34 34 34 34 35 35 35 35 35 36 36 37 37 38 38 39 40 40 41 42 43 44 44 44 44 43 43 43 43 43 42 42 43 43 43 44 45 46 46 47 47 48 48 48 48 49 50 49 48 46 45 43 41 40 40 40 40 41 41 42 42 43 43 44 44 44 43 43
21 23 25 27 29 30 32 32 33 34 35 35 36 36 36 36 36 36 36 36 35 35 35 35 35 35 35 36 36 36 37 37 37 38 38 39 39 40 41 41 42 43 43 42 41 41 42 42 42 42 43 43 43 43 44 44 45 46 46 47 47 47 47 48 48 47 46 44 43 42 41 40 40 40 40 41 42 42 42 43 43 43 44 44 43 43
17 19 20 22 24 25 26 28 30 32 33 34 35 36 37 37 37 38 38 38 38 37 37 37 37 36 37 37 37 37 37 37 37 37 37 37 38 38 39 39 40 41 41 41 41 41 40 40 40 41 42 42 41 42 42 43 44 44 45 45 45 46 46 47 46 45 44 43 42 41 41 40 40 41 41 42 42 42 43 43 43 43 44 43 43 43
15 15 16 18 19 20 21 23 25 27 29 31 33 34 36 37 37 38 39 39 39 39 39 39 39 38 38 39 39 39 39 39 39 39 38 38 38 39 39 39 39 40 40 40 40 41 41 40 40 40 40 40 40 41 41 42 42 43 43 44 44 44 44 44 44 44 43 42 42 42 41 41 41 42 42 42 42 42 43 43 43 43 43 43 43 43
14 14 14 15 16 17 18 19 21 22 23 25 28 30 32 34 35 36 37 38 39 40 40 41 40 40 40 40 40 41 41 41 41 41 41 41 41 41 41 41 41 41 41 41 41 41 41 41 42 41 41 41 41 41 42 42 42 42 43 43 43 43 43 43 43 43 43 42 42 42 42 42 42 43 43 43 42 42 43 43 43 43 43 43 42 42
14 14 14 14 14 15 16 16 17 18 19 21 23 25 27 29 30 31 33 35 36 37 38 39 39 39 39 40 41 41 41 42 42 43 43 43 43 43 43 43 43 43 43 43 43 42 42 42 42 42 42 42 43 43 43 43 43 43 43 43 43 43 43 43 43 43 43 43 43 43 43 43 43 44 43 43 43 43 42 42 42 42 42 42 42 41
14 14 14 14 14 14 15 15 16 16 17 18 19 21 23 25 26 27 28 29 31 32 33 34 35 35 36 37 39 40 40 40 41 42 42 42 43 43 43 44 44 45 45 45 45 45 45 45 44 44 44 44 44 44 45 45 45 45 44 44 44 44 44 44 44 44 44 44 44 44 44 44 44 44 44 43 43 42 42 42 41 41 41 41 41 40
14 14 14 14 14 15 15 15 15 16 16 17 18 19 20 21 22 23 25 25 26 27 28 29 30 31 32 33 34 35 35 36 37 38 39 39 40 40 41 42 42 43 44 45 46 46 46 46 46 47 47 46 46 45 45 45 46 45 45 45 45 45 45 45 45 45 45 45 45 45 45 45 45 44 44 43 42 41 41 40 40 39 40 40 39 38
15 15 15 15 15 15 15 15 15 16 16 17 17 18 18 19 20 21 22 22 23 23 24 25 26 27 27 28 29 30 31 31 32 33 34 35 36 36 37 38 38 39 40 41 42 44 45 45 46 46 47 47 47 46 45 45 45 45 45 45 44 45 45 45 45 45 45 45 46 45 45 45 45 44 43 42 41 40 39 38 38 37 38 38 37 36
Wind_Direction
231 229 227 225 223 222 221 222 224 225 225 224 224 225 226 227 227 225 223 222 222 222 222 222 223 225 226 226 226 227 228 230 233 234 235 236 237 237 237 235 233 229 226 225 225 226 228 231 233 235 238 241 244 246 247 247 245 241 236 233 232 234 238 242 244 245 245 244 245 246 247 246 246 246 247 249 251 252 253 254 255 257 258 259 259 259
230 228 227 225 224 223 223 224 225 227 229 229 229 229 229 230 230 229 228 227 227 226 225 223 221 221 221 221 222 223 224 225 226 228 230 233 235 236 237 236 234 233 231 231 233 235 237 240 242 245 247 250 252 253 254 253 250 245 239 236 236 237 240 243 245 246 246 246 246 246 246 244 243 243 245 248 250 252 254 255 257 258 259 260 260 260
228 226 225 224 224 224 224 225 225 225 228 229 231 232 232 232 232 231 230 230 230 231 230 228 225 222 220 220 220 221 222 222 222 222 223 226 229 232 234 234 234 233 233 235 237 241 245 248 251 252 252 252 252 252 252 251 248 244 240 239 239 241 244 246 247 248 248 247 247 247 247 245 243 243 245 248 251 253 255 256 258 259 260 260 260 259
225 224 223 222 222 223 224 224 224 225 225 227 229 231 233 234 234 233 232 232 232 233 233 233 232 229 226 224 223 223 223 223 222 222 222 223 226 228 230 232 234 236 238 240 243 246 250 252 253 252 251 249 247 246 245 244 243 241 239 239 240 243 245 247 247 248 248 248 248 248 248 246 246 246 248 250 253 255 256 258 259 259 259 259 259 258
222 221 220 220 220 220 222 222 222 223 224 225 226 228 231 232 233 234 233 232 232 232 233 234 234 234 233 231 229 228 227 228 228 228 228 229 230 231 232 234 237 240 243 246 247 249 250 250 250 249 247 245 242 240 239 239 239 238 238 239 240 242 244 245 246 247 247 248 248 248 248 248 249 250 252 253 255 256 257 258 259 259 258 258 257 256
219 218 217 217 217 218 219 218 219 220 221 221 223 224 225 226 227 228 229 229 229 229 230 232 233 234 234 234 233 231 230 231 232 234 235 237 237 238 238 239 240 242 243 245 246 246 246 245 245 245 245 243 241 240 239 238 238 238 238 239 240 242 243 245 246 247 248 248 249 249 249 250 252 253 254 255 256 257 257 257 257 257 257 256 255 255
215 215 214 214 214 215 215 215 215 216 215 215 216 217 219 219 219 220 221 222 223 225 227 229 231 232 232 233 232 231 230 230 231 233 235 236 238 238 239 239 239 239 240 240 240 240 239 239 239 240 241 241 241 241 241 241 241 241 241 242 243 244 245 246 247 248 249 250 250 251 252 252 254 255 255 256 256 256 256 256 256 255 255 254 253 253
212 212 212 211 211 211 211 211 211 212 211 210 209 211 214 215 214 214 215 216 219 222 225 227 228 229 229 230 229 228 228 228 229 230 231 232 233 234 234 234 234 234 234 234 234 234 234 234 235 236 237 238 239 240 242 243 243 244 245 245 246 247 247 248 249 250 251 251 252 252 253 254 254 255 255 255 255 255 255 254 254 253 253 252 252 251
209 210 210 210 208 208 207 207 207 207 208 208 208 210 212 213 213 212 213 215 218 221 224 225 226 227 227 226 226 225 225 225 225 226 227 227 228 228 228 228 228 228 228 228 229 229 229 230 231 232 233 235 237 238 240 242 243 244 245 246 247 248 248 249 249 250 251 251 252 252 253 253 254 254 254 254 254 254 254 253 252 252 251 251 251 250
205 207 208 208 208 207 206 205 204 204 205 205 206 208 211 213 213 213 213 216 218 221 222 223 224 225 225 224 223 222 222 222 221 222 222 222 223 223 224 224 224 224 224 224 225 226 227 227 228 230 231 233 235 237 239 240 242 243 244 245 246 247 247 248 248 249 249 249 250 250 251 251 252 253 253 253 253 253 252 252 251 251 251 250 250 250
201 202 204 206 207 208 207 204 202 201 201 202 203 205 208 211 213 214 215 217 219 220 221 222 223 223 223 222 221 220 219 218 218 218 218 218 219 219 220 220 220 221 221 222 223 224 225 226 228 229 231 233 235 236 238 240 241 242 243 244 244 245 246 246 247 247 247 248 248 249 249 250 250 251 251 252 252 252 252 252 251 251 251 251 251 251
199 199 200 202 204 205 205 204 202 201 201 202 203 205 209 211 213 215 217 219 220 221 222 223 223 222 222 221 219 218 217 216 216 216 216 216 216 217 217 218 219 220 220 221 222 224 225 227 229 230 232 234 235 237 238 240 241 242 242 243 244 244 245 245 246 246 247 247 247 248 248 249 249 250 251 251 251 252 252 252 252 252 252 252 252 252
200 200 199 199 199 200 202 203 203 203 204 205 207 208 210 213 215 217 219 221 222 223 223 224 224 223 221 219 218 217 216 215 215 215 215 215 216 217 217 218 219 220 221 222 224 226 227 229 230 232 233 235 236 237 238 240 241 241 242 242 243 244 245 245 246 246 246 247 247 248 248 249 249 250 250 251 252 252 252 253 253 253 253 253 253 253
201 201 200 199 198 197 198 201 203 205 207 209 211 212 214 216 218 219 220 221 223 223 223 224 224 223 221 219 217 216 215 215 215 214 214 215 216 217 218 219 220 222 223 224 226 228 230 230 232 233 233 234 235 237 238 239 240 241 241 242 243 243 244 245 245 246 246 247 247 248 248 249 249 250 251 251 252 252 253 253 254 254 254 254 254 254
203 202 202 202 200 198 197 198 200 204 208 212 214 216 217 219 220 221 221 220 220 221 222 222 222 223 222 219 217 215 214 214 214 214 215 216 217 218 218 220 221 223 224 225 227 229 230 230 231 231 232 233 234 236 237 238 239 240 240 241 242 243 244 244 245 246 247 247 248 248 249 249 249 250 251 251 252 253 253 254 254 255 255 255 255 255
204 205 205 205 205 203 200 199 199 201 204 208 213 216 218 219 221 222 221 220 220 220 220 220 220 221 222 220 218 215 213 213 213 214 215 217 219 220 220 221 222 223 224 226 227 228 228 228 228 229 229 231 233 234 236 237 238 239 240 240 241 242 243 244 245 246 246 247 248 248 248 249 249 250 251 251 252 253 253 254 255 255 255 256 256 256
204 206 207 208 208 207 205 203 202 201 201 202 206 210 213 216 219 222 223 223 222 221 221 221 220 220 220 220 219 217 215 213 213 214 215 217 220 221 222 222 223 224 225 226 226 226 225 225 225 226 227 230 232 234 235 236 237 238 239 240 241 242 243 243 244 245 246 247 247 248 248 249 249 250 250 251 252 253 253 254 255 255 256 256 257 257
206 206 207 208 209 209 208 207 206 205 203 201 201 204 207 209 211 215 220 223 225 224 224 223 222 221 222 222 223 222 219 217 216 216 216 217 219 221 222 223 224 225 225 226 226 225 223 223 224 226 228 230 233 235 236 236 237 238 238 240 240 241 242 243 244 245 246 246 247 248 248 249 249 250 250 251 252 252 253 254 254 255 256 256 257 257
210 209 209 209 209 210 210 210 210 208 206 205 203 203 203 203 203 205 210 215 219 222 224 224 222 221 221 222 225 226 224 223 222 222 220 220 220 221 222 224 225 226 226 226 225 224 222 222 224 227 229 232 235 236 236 236 236 237 237 238 239 240 241 242 243 244 245 246 247 248 248 249 249 250 250 251 252 252 253 254 254 255 255 256 257 257
215 215 215 214 212 211 211 212 213 213 212 210 208 207 207 205 204 203 204 207 210 214 218 220 219 217 214 216 219 222 225 226 227 226 226 226 225 225 225 226 226 226 226 226 225 224 222 223 225 228 231 234 236 237 236 235 234 235 235 237 238 239 240 241 242 243 244 245 247 248 249 249 250 250 251 251 252 252 253 254 254 255 255 256 256 257
218 220 221 221 220 217 215 215 215 216 216 216 214 213 212 211 209 208 207 208 209 210 212 214 216 215 210 210 212 215 219 223 226 228 229 232 233 232 230 228 227 226 226 227 226 224 223 225 227 230 233 236 237 237 235 233 232 232 233 235 236 238 239 240 241 242 244 245 247 248 249 250 250 251 251 252 252 253 253 254 254 255 255 256 257 257
220 222 223 224 225 225 224 222 220 219 220 220 219 218 217 216 215 214 214 214 214 214 215 215 216 214 211 210 212 214 215 218 221 225 228 233 235 235 231 228 225 224 225 226 226 225 225 227 229 231 234 237 238 237 234 232 230 230 232 234 236 238 239 240 241 242 244 246 248 249 250 251 251 251 252 252 252 253 253 254 255 255 256 257 257 258
221 223 224 224 225 226 227 226 225 224 224 223 223 223 222 221 220 220 220 219 219 220 220 220 220 218 214 212 213 215 215 216 219 222 226 230 233 233 230 226 223 222 223 224 224 225 227 229 231 234 236 237 238 236 233 230 229 230 232 235 237 238 240 241 242 244 246 248 250 251 252 252 252 252 252 253 253 253 254 255 255 256 257 258 259 259
220 222 223 224 225 225 226 226 227 227 227 227 226 226 226 225 225 225 224 224 225 225 225 225 224 222 219 216 215 216 217 218 218 220 223 228 231 231 229 225 221 220 222 223 224 227 229 232 234 236 237 238 238 235 232 229 229 231 234 237 239 240 241 242 244 246 249 251 252 253 253 253 253 253 253 254 254 254 255 256 257 258 259 260 261 262
218 219 221 223 225 225 225 225 226 226 227 228 228 228 228 227 227 227 227 227 228 228 228 228 226 225 223 220 219 219 220 220 220 221 222 226 230 232 230 226 222 221 223 225 227 230 232 234 236 238 238 239 237 234 231 229 229 232 236 239 241 242 243 243 244 247 250 252 254 254 254 254 254 254 254 255 255 256 256 257 259 261 263 264 265 265
216 216 217 219 222 224 225 224 224 225 225 227 227 228 228 228 228 227 227 228 228 228 229 228 228 227 226 225 223 223 223 223 224 225 225 226 229 233 233 229 225 224 225 228 231 233 235 237 238 238 238 238 237 233 230 229 230 233 238 241 243 244 244 244 244 246 248 251 254 255 256 256 256 256 256 256 256 257 258 259 262 264 267 269 269 269
214 213 212 213 216 220 222 223 223 223 223 225 226 227 228 228 228 228 228 228 228 228 228 228 228 228 228 227 226 226 226 226 227 227 228 228 229 232 234 232 229 227 228 230 233 235 237 238 238 239 238 238 236 233 230 229 231 234 239 242 244 246 246 246 246 246 247 250 253 255 257 257 257 257 257 257 257 258 259 261 264 267 270 272 273 273
213 212 210 209 210 213 216 219 221 221 222 223 224 226 227 228 228 228 228 228 229 228 229 229 229 228 228 228 228 228 228 228 228 228 229 228 229 230 232 233 232 231 230 231 232 234 236 237 238 238 239 238 236 233 231 230 232 235 239 242 244 247 248 249 249 249 250 251 253 256 257 258 258 258 258 258 258 259 259 262 265 269 273 275 276 276
212 212 211 209 207 208 209 212 215 218 221 222 223 225 226 226 227 227 227 228 228 228 228 228 228 227 227 228 229 230 230 230 230 229 229 228 229 229 230 232 232 232 232 232 232 232 233 234 236 237 238 239 238 236 233 233 234 237 239 242 244 247 249 251 252 253 253 254 255 257 258 259 259 259 259 258 259 259 260 262 266 270 274 277 279 279
213 213 212 210 209 207 206 207 210 214 218 221 222 223 224 225 225 225 226 226 226 226 226 226 225 225 225 225 226 228 230 231 231 230 229 229 229 229 230 231 233 233 234 234 235 235 235 236 236 238 239 240 241 239 238 238 238 239 240 241 244 247 250 252 253 254 255 256 257 258 259 259 259 259 259 258 258 259 260 262 266 270 275 279 281 282
214 213 213 212 211 209 207 206 208 211 214 218 220 221 222 223 224 224 224 224 225 225 225 225 224 223 223 222 222 224 227 229 231 231 230 230 230 230 230 231 233 235 236 237 238 240 241 241 242 242 243 244 245 244 244 243 242 241 240 241 244 247 250 252 253 254 255 257 258 259 259 260 260 259 259 258 258 259 260 262 266 270 276 280 282 283
214 213 212 213 212 212 211 210 210 211 213 215 217 218 220 220 221 222 222 223 223 224 224 225 225 224 224 223 223 224 226 228 230 231 231 231 231 231 231 232 234 236 237 238 240 241 243 245 245 246 246 247 247 248 248 247 243 241 239 241 245 248 250 251 252 253 255 256 257 257 257 258 258 258 258 258 258 259 260 263 266 271 276 280 282 284
213 212 211 212 212 213 213 213 212 212 213 214 215 216 217 218 219 220 221 222 222 223 224 224 225 225 225 225 226 227 228 229 230 232 232 233 233 233 233 233 234 235 237 239 240 242 243 244 245 246 246 247 247 248 248 246 242 239 239 242 246 249 250 251 251 252 252 252 252 252 253 254 255 256 257 257 258 259 261 264 268 272 277 280 282 284
213 211 210 210 210 211 212 213 213 212 212 212 213 214 215 216 217 219 220 221 221 222 223 224 224 225 225 226 227 227 228 229 230 231 232 233 234 234 234 234 234 234 235 237 240 241 243 244 245 245 245 245 245 245 245 243 240 238 239 243 246 249 250 250 250 249 247 246 246 247 249 251 253 254 255 257 258 260 263 267 270 274 278 281 283 284
214 212 210 208 208 208 209 210 210 210 210 210 211 211 212 214 215 217 218 219 220 221 222 222 223 224 224 225 226 226 227 227 228 230 231 232 233 234 235 234 234 233 234 236 238 240 242 243 244 244 243 243 242 242 241 240 239 239 241 244 247 249 250 250 249 248 245 244 243 245 247 249 251 253 255 257 260 263 267 270 274 276 279 281 283 284
216 214 212 209 207 207 206 207 207 208 208 208 208 209 210 211 212 214 215 216 217 218 219 220 221 222 223 223 224 224 224 225 226 227 229 230 232 233 233 234 234 234 235 237 239 241 242 243 244 243 242 241 241 240 240 240 241 242 244 247 248 250 251 251 250 249 247 246 245 246 247 249 251 253 256 259 263 267 270 273 276 278 280 281 283 283
217 215 213 211 209 207 206 205 205 206 207 207 208 208 208 209 209 210 211 212 213 214 215 216 217 218 219 219 219 219 220 221 222 223 225 227 229 230 231 232 233 234 236 238 240 242 243 243 243 243 242 241 240 240 240 241 242 244 247 249 251 252 252 252 252 251 250 249 249 249 250 250 252 255 258 262 266 270 273 275 277 279 280 281 282 282
217 216 214 213 211 209 207 206 205 206 207 207 208 208 209 209 209 209 210 210 210 210 210 211 212 212 213 213 213 214 214 215 216 218 219 221 223 225 225 226 227 230 232 234 236 238 239 240 241 242 242 242 241 241 241 242 244 246 248 250 252 253 254 254 253 253 253 252 252 253 253 254 255 258 262 265 269 272 274 276 278 279 280 281 281 281
219 218 216 214 212 211 209 208 207 207 207 208 209 210 210 211 211 211 211 211 211 210 210 210 210 211 211 211 211 211 212 212 213 214 216 217 219 220 221 221 222 224 226 228 231 232 234 235 237 239 240 241 242 242 243 243 245 246 248 250 252 254 254 255 255 255 254 255 255 256 256 257 258 261 264 267 270 272 274 276 277 279 280 280 280 281
220 220 219 217 215 214 212 210 209 208 208 209 210 211 212 213 213 214 214 215 215 215 215 215 215 216 216 217 217 218 218 218 218 219 220 221 223 224 224 225 226 227 228 228 229 230 232 234 236 237 239 241 242 243 244 245 246 248 249 251 253 254 254 255 255 255 255 256 257 258 259 260 261 263 265 267 270 272 273 275 277 278 279 279 279 279
221 221 221 220 219 217 216 214 212 211 210 210 211 212 212 213 214 215 216 217 218 219 220 221 221 222 223 224 226 226 227 227 228 228 228 229 231 232 233 234 235 236 236 237 237 237 237 237 238 239 240 241 243 244 245 246 247 249 250 252 253 254 254 255 255 256 256 257 258 260 261 262 263 264 266 268 270 272 273 275 276 277 278 278 278 278
221 222 222 222 221 220 219 217 215 214 213 213 213 213 214 215 216 216 217 218 219 220 221 222 223 224 226 227 229 230 231 232 232 232 233 233 235 236 238 239 241 242 242 243 244 244 244 244 243 243 243 243 244 245 246 247 248 249 250 251 252 253 254 254 255 255 257 258 259 261 262 263 264 265 266 268 269 271 273 274 275 276 277 277 277 277
220 220 221 221 221 221 220 219 218 217 216 215 215 216 216 217 217 218 219 219 220 220 221 222 223 224 225 226 228 229 230 231 232 232 233 233 234 236 237 239 241 243 244 246 247 248 248 248 248 247 246 246 245 245 246 246 247 248 249 250 251 252 254 254 255 255 257 258 260 261 262 263 264 265 266 267 268 270 271 273 274 275 276 276 276 276
216 217 218 219 220 220 221 220 220 219 219 218 218 218 219 219 220 220 221 221 222 222 222 223 223 224 225 226 226 227 228 229 230 230 231 231 232 234 235 237 239 241 243 244 246 247 248 249 249 249 248 247 247 247 247 247 248 249 249 250 251 252 253 254 255 256 257 258 259 261 262 263 263 264 265 266 267 269 270 271 273 274 274 275 275 275
212 214 215 216 218 218 219 220 220 220 220 220 220 220 221 221 222 222 223 223 224 224 225 225 226 226 227 227 228 228 229 229 229 230 230 231 232 233 234 235 237 239 240 242 242 243 244 245 246 246 246 247 247 247 248 248 249 250 251 251 252 253 253 254 255 256 257 258 259 260 260 261 262 263 263 264 266 267 269 270 272 273 273 274 274 275
211 211 212 213 213 214 214 216 217 218 219 220 220 221 222 223 224 224 225 225 226 227 227 228 228 228 229 230 231 231 232 233 233 234 234 234 234 235 235 235 236 237 238 239 240 240 240 241 241 241 242 243 244 246 247 248 249 250 252 252 253 253 254 255 256 256 257 257 258 258 259 260 260 261 262 263 264 266 268 269 271 272 272 273 274 274
213 211 211 211 210 210 211 212 213 214 216 217 219 220 222 223 224 225 226 227 227 228 229 230 230 231 231 232 233 234 235 236 237 237 238 238 239 239 238 238 238 237 237 237 238 238 238 239 239 240 240 240 241 243 245 247 248 249 250 251 252 252 253 253 254 255 256 256 256 257 258 259 259 260 261 262 264 266 267 269 270 271 272 273 273 274
217 215 214 213 211 210 209 209 210 210 211 213 215 218 220 222 223 224 225 227 228 229 230 231 231 232 233 234 235 236 236 237 238 239 240 240 241 241 241 240 240 239 238 238 238 238 238 238 239 239 240 240 241 242 244 245 246 247 249 250 251 251 251 252 253 253 254 255 255 256 257 257 258 259 261 262 264 266 267 269 270 271 272 273 273 274
222 220 218 216 215 213 212 210 209 209 209 210 212 214 217 219 221 222 223 225 226 227 228 230 231 232 232 234 235 236 236 237 238 239 240 240 241 241 241 241 240 240 239 239 239 239 239 239 239 240 241 242 243 244 245 246 247 248 249 249 250 250 250 251 252 252 253 254 254 255 256 257 258 260 261 263 264 266 267 268 269 270 272 272 273 273
227 225 223 221 219 218 216 214 213 211 211 210 211 212 214 216 218 219 220 222 223 224 225 227 228 229 230 231 233 234 235 236 237 237 238 239 239 239 239 240 240 239 239 240 240 240 240 240 241 241 242 243 244 245 247 248 249 250 250 250 250 250 251 251 252 252 253 253 254 255 256 257 259 260 262 263 265 266 267 268 269 270 271 271 271 271
231 229 227 225 223 221 220 218 217 215 214 214 213 213 214 215 216 217 218 219 220 221 222 224 225 226 227 228 230 231 232 233 234 235 235 236 237 237 237 238 238 238 238 239 240 240 241 241 242 242 243 244 245 246 247 248 250 251 251 251 251 251 251 251 252 252 253 253 254 255 257 258 259 261 262 263 264 265 265 266 267 268 269 269 269 268